Weather History for KFAM - November, 2012

Change the Weather History Date:

Monday, November 26, 2012

  Actual Average (KCGI) Record (KCGI)
Temperature  
Mean Temperature 37 °F 42 °F  
Max Temperature 46 °F 52 °F 72 °F (1990)
Min Temperature 28 °F 33 °F 12 °F (1977)
Degree Days  
Heating Degree Days 28 23  
Month to date heating degree days 453  
Since 1 July heating degree days 756  
Cooling Degree Days 0 0  
Month to date cooling degree days 0  
Year to date cooling degree days 1451  
Moisture  
Dew Point 28 °F    
Average Humidity 70    
Maximum Humidity 93    
Minimum Humidity 53    
Precipitation  
Precipitation 0.02 in 0.16 in 1.87 in (1978)
Month to date precipitation 3.81  
Year to date precipitation 41.93  
Sea Level Pressure  
Sea Level Pressure 30.16 in    
Wind  
Wind Speed 4 mph (NNE)    
Max Wind Speed 18 mph    
Max Gust Speed 22 mph    
Visibility 10 miles    
Events      
T = Trace of Precipitation, MM = Missing Value Source: NWS Daily Summary

Daily Weather History Graph

Daily Weather History Graph

Search for Another Location

Airport or City:

Trip Planner

Search our weather history database for the weather conditions in past years. The results will help you decide how hot, cold, wet, or windy it might be!

Date:

Astronomy

Nov. 26, 2012 Rise Set
Actual Time 6:53 AM CST 4:44 PM CST
Civil Twilight 6:25 AM CST 5:12 PM CST
Nautical Twilight 5:52 AM CST 5:45 PM CST
Astronomical Twilight 5:21 AM CST 6:16 PM CST
Moon 3:35 PM CST (11/26) 5:05 AM CST (11/26)
Length of Visible Light 10h 47m
Length of Day
9h 50m
Waxing Gibbous, 97% of the Moon is Illuminated
Nov 26
Waxing Gibbous
Nov 28
Full
Dec 6
Last Quarter
Dec 13
New
Dec 19
First Quarter

Hourly Weather History & Observations

Time (CST) Temp. Windchill Dew Point Humidity Pressure Visibility Wind Dir Wind Speed Gust Speed Precip Events Conditions
12:15 AM 35.6 °F - 28.4 °F 75% 30.04 in 10.0 mi Calm Calm - N/A   Clear
12:35 AM 32.0 °F - 24.8 °F 75% 30.04 in 10.0 mi Calm Calm - N/A   Clear
12:55 AM 30.2 °F - 26.6 °F 86% 30.04 in 10.0 mi Calm Calm - N/A   Clear
1:15 AM 33.8 °F 30.8 °F 28.4 °F 81% 30.04 in 10.0 mi NNW 3.5 mph - N/A   Clear
1:35 AM 33.8 °F - 28.4 °F 81% 30.03 in 10.0 mi Calm Calm - N/A   Clear
1:55 AM 30.2 °F - 26.6 °F 86% 30.04 in 10.0 mi Calm Calm - N/A   Clear
2:15 AM 30.2 °F - 28.4 °F 93% 30.04 in 10.0 mi Calm Calm - N/A   Clear
2:35 AM 32.0 °F - 26.6 °F 80% 30.05 in 10.0 mi Calm Calm - N/A   Clear
2:55 AM 30.2 °F - 26.6 °F 86% 30.05 in 10.0 mi Calm Calm - N/A   Clear
3:15 AM 30.2 °F - 26.6 °F 86% 30.05 in 10.0 mi Calm Calm - N/A   Clear
3:35 AM 30.2 °F - 26.6 °F 86% 30.05 in 10.0 mi Calm Calm - N/A   Clear
3:55 AM 30.2 °F - 26.6 °F 86% 30.04 in 10.0 mi Calm Calm - N/A   Clear
4:15 AM 30.2 °F - 26.6 °F 86% 30.04 in 10.0 mi Calm Calm - N/A   Clear
4:55 AM 30.2 °F - 26.6 °F 86% 30.05 in 10.0 mi Calm Calm - N/A   Clear
5:15 AM 30.2 °F - 26.6 °F 86% 30.05 in 10.0 mi Calm Calm - N/A   Clear
5:35 AM 30.2 °F - 26.6 °F 86% 30.06 in 10.0 mi Calm Calm - N/A   Clear
5:55 AM 28.4 °F - 26.6 °F 93% 30.07 in 10.0 mi Calm Calm - N/A   Partly Cloudy
6:15 AM 28.4 °F - 26.6 °F 93% 30.08 in 10.0 mi Calm Calm - N/A   Mostly Cloudy
6:35 AM 28.4 °F - 26.6 °F 93% 30.09 in 10.0 mi Calm Calm - N/A   Overcast
6:55 AM 33.8 °F 30.8 °F 30.2 °F 87% 30.10 in 10.0 mi NNE 3.5 mph - N/A   Overcast
7:15 AM 35.6 °F 32.8 °F 30.2 °F 81% 30.10 in 10.0 mi North 3.5 mph - N/A   Overcast
7:35 AM 35.6 °F 30.7 °F 30.2 °F 81% 30.10 in 10.0 mi NNE 5.8 mph - N/A   Overcast
7:55 AM 37.4 °F 31.4 °F 30.2 °F 75% 30.10 in 10.0 mi NNE 8.1 mph - N/A   Overcast
8:15 AM 37.4 °F 30.8 °F 30.2 °F 75% 30.12 in 10.0 mi NNE 9.2 mph - N/A   Scattered Clouds
8:35 AM 39.2 °F 35.0 °F 30.2 °F 70% 30.13 in 10.0 mi North 5.8 mph - N/A   Clear
8:55 AM 39.2 °F 33.0 °F 30.2 °F 70% 30.14 in 10.0 mi NNE 9.2 mph - N/A   Clear
9:15 AM 41.0 °F 34.3 °F 30.2 °F 65% 30.14 in 10.0 mi NNE 11.5 mph - N/A   Clear
9:35 AM 41.0 °F 34.7 °F 30.2 °F 65% 30.14 in 10.0 mi NNE 10.4 mph - N/A   Clear
9:55 AM 42.8 °F 37.0 °F 32.0 °F 66% 30.15 in 10.0 mi NE 10.4 mph - N/A   Clear
10:15 AM 42.8 °F 37.0 °F 32.0 °F 66% 30.16 in 10.0 mi NE 10.4 mph - N/A   Partly Cloudy
10:35 AM 44.6 °F 39.2 °F 32.0 °F 61% 30.16 in 10.0 mi NNE 10.4 mph - N/A   Mostly Cloudy
10:55 AM 44.6 °F 39.7 °F 30.2 °F 57% 30.15 in 10.0 mi North 9.2 mph - N/A   Overcast
11:15 AM 44.6 °F 40.2 °F 32.0 °F 61% 30.15 in 10.0 mi NNE 8.1 mph - N/A   Overcast
11:35 AM 44.6 °F 40.2 °F 32.0 °F 61% 30.15 in 10.0 mi NNE 8.1 mph - N/A   Overcast
11:55 AM 44.6 °F 39.7 °F 30.2 °F 57% 30.13 in 10.0 mi NNE 9.2 mph - N/A   Overcast
12:15 PM 46.4 °F 41.5 °F 30.2 °F 53% 30.13 in 10.0 mi NNE 10.4 mph - N/A   Overcast
12:35 PM 46.4 °F 42.4 °F 32.0 °F 57% 30.14 in 10.0 mi NNE 8.1 mph - N/A   Overcast
12:55 PM 46.4 °F 41.1 °F 30.2 °F 53% 30.14 in 10.0 mi NNE 11.5 mph 18.4 mph N/A   Overcast
1:15 PM 46.4 °F 41.5 °F 30.2 °F 53% 30.13 in 10.0 mi NE 10.4 mph 16.1 mph N/A   Overcast
1:35 PM 44.6 °F 39.2 °F 30.2 °F 57% 30.14 in 10.0 mi NNE 10.4 mph - N/A   Overcast
1:55 PM 44.6 °F 40.7 °F 30.2 °F 57% 30.15 in 10.0 mi NNE 6.9 mph - N/A   Overcast
2:15 PM 44.6 °F 39.2 °F 30.2 °F 57% 30.15 in 10.0 mi NNE 10.4 mph 17.3 mph N/A   Overcast
2:35 PM 42.8 °F 37.0 °F 30.2 °F 61% 30.15 in 10.0 mi North 10.4 mph - N/A   Overcast
2:55 PM 41.0 °F 34.7 °F 30.2 °F 65% 30.16 in 10.0 mi NNE 10.4 mph - N/A   Overcast
3:15 PM 39.2 °F 33.0 °F 33.8 °F 81% 30.16 in 8.0 mi NNE 9.2 mph - 0.02 in   Mostly Cloudy
3:35 PM 39.2 °F 34.2 °F 33.8 °F 81% 30.17 in 10.0 mi North 6.9 mph - 0.02 in   Overcast
3:55 PM 41.0 °F 35.2 °F 30.2 °F 65% 30.19 in 10.0 mi North 9.2 mph - 0.02 in   Overcast
4:15 PM 41.0 °F 34.7 °F 28.4 °F 61% 30.20 in 10.0 mi North 10.4 mph - N/A   Overcast
4:35 PM 39.2 °F 31.2 °F 26.6 °F 61% 30.20 in 10.0 mi North 13.8 mph 19.6 mph N/A   Mostly Cloudy
4:55 PM 39.2 °F 33.6 °F 28.4 °F 65% 30.22 in 10.0 mi North 8.1 mph - N/A   Overcast
5:15 PM 39.2 °F 32.0 °F 26.6 °F 61% 30.22 in 10.0 mi North 11.5 mph 18.4 mph N/A   Overcast
5:35 PM 39.2 °F 34.2 °F 26.6 °F 61% 30.25 in 10.0 mi North 6.9 mph 19.6 mph N/A   Overcast
5:55 PM 39.2 °F 32.0 °F 26.6 °F 61% 30.26 in 10.0 mi NNE 11.5 mph 17.3 mph N/A   Overcast
6:15 PM 39.2 °F 32.0 °F 26.6 °F 61% 30.26 in 10.0 mi NNE 11.5 mph 17.3 mph N/A   Overcast
6:35 PM 39.2 °F 29.8 °F 24.8 °F 56% 30.28 in 9.0 mi North 18.4 mph 21.9 mph N/A   Mostly Cloudy
6:55 PM 37.4 °F 30.8 °F 26.6 °F 65% 30.28 in 10.0 mi North 9.2 mph - N/A   Mostly Cloudy
7:15 PM 39.2 °F 32.0 °F 24.8 °F 56% 30.29 in 10.0 mi NNE 11.5 mph 19.6 mph N/A   Overcast
7:35 PM 39.2 °F 32.5 °F 24.8 °F 56% 30.29 in 10.0 mi North 10.4 mph - N/A   Overcast
7:55 PM 39.2 °F 32.0 °F 24.8 °F 56% 30.29 in 10.0 mi NNE 11.5 mph - N/A   Overcast
8:15 PM 37.4 °F 32.1 °F 24.8 °F 60% 30.29 in 10.0 mi NNE 6.9 mph - N/A   Overcast
8:35 PM 37.4 °F 29.8 °F 24.8 °F 60% 30.30 in 10.0 mi NNE 11.5 mph 16.1 mph N/A   Overcast
8:55 PM 37.4 °F 31.4 °F 24.8 °F 60% 30.31 in 10.0 mi North 8.1 mph 16.1 mph N/A   Overcast
9:15 PM 37.4 °F 30.8 °F 24.8 °F 60% 30.32 in 10.0 mi North 9.2 mph - N/A   Overcast
9:35 PM 35.6 °F 29.2 °F 24.8 °F 65% 30.32 in 10.0 mi North 8.1 mph - N/A   Mostly Cloudy
9:55 PM 35.6 °F 31.7 °F 24.8 °F 65% 30.32 in 10.0 mi North 4.6 mph - N/A   Scattered Clouds
10:15 PM 33.8 °F 28.6 °F 24.8 °F 70% 30.34 in 10.0 mi North 5.8 mph - N/A   Partly Cloudy
10:55 PM 32.0 °F 26.4 °F 24.8 °F 75% 30.34 in 10.0 mi North 5.8 mph - N/A   Clear
11:15 PM 32.0 °F 25.6 °F 24.8 °F 75% 30.34 in 10.0 mi North 6.9 mph - N/A   Clear
11:35 PM 30.2 °F 25.4 °F 24.8 °F 80% 30.35 in 10.0 mi North 4.6 mph - N/A   Clear
11:55 PM 30.2 °F 24.3 °F 24.8 °F 80% 30.35 in 10.0 mi North 5.8 mph - N/A   Mostly Cloudy